Regional Weather Roundup
Issued by NWS

Home | Current Version | Previous Version | Graphics & Text | Print | Product List | Glossary On
Versions: 1 2 3 4 5 6 7 8 9 10 11 12 13 14 15 16 17 18 19 20 21 22 23 24 25 26 27 28 29 30 31 32 33 34 35 36 37 38 39 40 41 42 43 44 45 46 47 48 49 50
000
ASUS43 KOAX 270710
RWRNE

WEATHER ROUNDUP FOR NEBRASKA
NATIONAL WEATHER SERVICE OMAHA NE
100 AM CST THU NOV 27 2014

NOTES: SATELLITE DATA IS BEING USED TO AUGMENT CLOUD COVER ABOVE
       12000 FEET.
       "FAIR" INDICATES FEW OR NO CLOUDS BELOW 12,000 FEET WITH NO
       SIGNIFICANT WEATHER AND/OR OBSTRUCTIONS TO VISIBILITY.

  * THESE STATIONS DO NOT REPORT WEATHER SUCH AS RAIN...SNOW OR FOG.

NEZ001>004-019>022-054>056-270800-
NEBRASKA PANHANDLE

CITY           SKY/WX    TMP DP  RH WIND       PRES   REMARKS
SCOTTSBLUFF    PTCLDY    18  16  92 E8        30.23F WCI   8
ALLIANCE       PTCLDY    20  18  92 SE5       30.25S WCI  13
CHADRON        CLOUDY   N/A N/A N/A S7        30.24F
KIMBALL        PTCLDY    22  21  94 SW8       30.21F WCI  13
SIDNEY         PTCLDY    20  17  88 SW12      30.26F WCI   8
$$

NEZ057>060-069>072-079>082-270800-
SOUTHWEST NEBRASKA

CITY           SKY/WX    TMP DP  RH WIND       PRES   REMARKS
NORTH PLATTE   CLOUDY    24  19  81 E5        30.36R WCI  18
IMPERIAL       CLEAR     26  23  88 S6        30.33F WCI  19
LEXINGTON      MOCLDY    25  19  78 E6        30.40S WCI  18
MCCOOK         CLOUDY    30  19  63 E3        30.37F
OGALLALA       FOG       25  24  96 CALM      30.32R VSB 1/4
$$

NEZ005>010-023>029-035>040-094-270800-
NORTH CENTRAL NEBRASKA

CITY           SKY/WX    TMP DP  RH WIND       PRES   REMARKS
VALENTINE      CLOUDY    23  18  81 SE6       30.35S WCI  16
AINSWORTH      CLOUDY    21  17  83 S8        30.36F WCI  11
BROKEN BOW     CLOUDY    21  16  81 CALM      30.39R
O`NEILL        CLOUDY    18  11  74 CALM      30.42F
ORD            CLOUDY    17  13  84 SE3       30.40F
THEDFORD       CLOUDY    28  20  74 S5        30.33F WCI  22
$$

NEZ041-046>049-061>064-073>077-083>087-270800-
SOUTH CENTRAL NEBRASKA

CITY           SKY/WX    TMP DP  RH WIND       PRES   REMARKS
GRAND ISLAND   PTCLDY    16  13  88 N6        30.45F WCI   7
AURORA         PTCLDY    18  13  78 N6        30.45S WCI  10
HASTINGS       PTCLDY    18  13  80 CALM      30.44R
HEBRON         CLEAR     19  14  81 N3        30.47R
HOLDREGE       MOCLDY    23  16  75 NE6       30.40F WCI  15
KEARNEY *      PTCLDY    18  12  79 NE3       30.43R
YORK           CLEAR     19  14  79 N6        30.46F WCI  11
$$

NEZ011>018-030>034-042>045-270800-
NORTHEAST NEBRASKA

CITY           SKY/WX    TMP DP  RH WIND       PRES   REMARKS
NORFOLK        PTCLDY    15   9  76 NW8       30.46F WCI   4
ALBION         MOCLDY    19  10  70 NW3       30.44F
BLAIR          CLOUDY    18  13  79 NW9       30.45R WCI   7
COLUMBUS *     CLEAR     16   9  73 NW6       30.48S WCI   7
FREMONT        CLEAR     15  12  85 W6        30.48R WCI   7
TEKAMAH        PTCLDY    17  11  77 NW10      30.49R WCI   5
WAYNE          CLOUDY    14   8  76 N8        30.48S WCI   3
$$

NEZ050>053-065>068-078-088>093-270800-
SOUTHEAST NEBRASKA

CITY           SKY/WX    TMP DP  RH WIND       PRES   REMARKS
LINCOLN        CLEAR     16  11  80 N6        30.51R WCI   7
OMAHA EPPLEY   PTCLDY    18  12  77 N13       30.49R WCI   5
BEATRICE       CLEAR     14  11  89 NW5       30.47R WCI   6
FALLS CITY     CLOUDY    24  18  77 NW10      30.46R WCI  14
NEBRASKA CITY  CLOUDY    23  17  76 NW8       30.47R WCI  14
PLATTSMOUTH    CLOUDY    22  17  81 NW10      30.47R WCI  11
$$

NEZ044-045-051>053-067-270800-
OMAHA AREA

CITY           SKY/WX    TMP DP  RH WIND       PRES   REMARKS
OMAHA EPPLEY   PTCLDY    18  12  77 N13       30.49R WCI   5
BLAIR          CLOUDY    18  13  79 NW9       30.45R WCI   7
FREMONT        CLEAR     15  12  85 W6        30.48R WCI   7
MILLARD        MOCLDY    19  13  76 NW9       30.49R WCI   8
OFFUTT AFB     CLOUDY    21  15  76 NW7       30.48R WCI  13
PLATTSMOUTH    CLOUDY    22  17  81 NW10      30.47R WCI  11
WAHOO          FAIR      16  11  81 NW6       30.48S WCI   7
$$



USA.gov is the U.S. government's official web portal to all federal, state and local government web resources and services.